TimeAKDT,TemperatureF,Dew PointF,Humidity,Sea Level PressureIn,VisibilityMPH,Wind Direction,Wind SpeedMPH,Gust SpeedMPH,PrecipitationIn,Events,Conditions,WindDirDegrees,DateUTC
12:01 AM,36.0,35.1,97,29.88,10.0,SE,9.2,-,N/A,,Clear,130,2013-09-06 08:01:00
1:01 AM,36.0,34.0,93,29.90,10.0,SSE,6.9,-,N/A,,Clear,150,2013-09-06 09:01:00
2:01 AM,37.0,35.1,93,29.90,10.0,Variable,3.5,-,N/A,,Overcast,0,2013-09-06 10:01:00
3:01 AM,36.0,35.1,97,29.91,10.0,North,5.8,-,N/A,,Scattered Clouds,350,2013-09-06 11:01:00
4:01 AM,36.0,35.1,97,29.91,10.0,SSE,3.5,-,N/A,,Overcast,150,2013-09-06 12:01:00
5:01 AM,37.0,36.0,96,29.93,10.0,Calm,Calm,-,N/A,,Overcast,0,2013-09-06 13:01:00
6:01 AM,37.9,36.0,93,29.93,10.0,Calm,Calm,-,N/A,,Overcast,0,2013-09-06 14:01:00
7:01 AM,37.0,36.0,96,29.94,10.0,Calm,Calm,-,N/A,,Scattered Clouds,0,2013-09-06 15:01:00
8:01 AM,37.9,36.0,93,29.94,10.0,East,3.5,-,N/A,,Mostly Cloudy,80,2013-09-06 16:01:00
9:01 AM,37.9,36.0,93,29.95,10.0,Calm,Calm,-,N/A,,Overcast,0,2013-09-06 17:01:00
10:01 AM,37.9,36.0,93,29.96,10.0,East,4.6,-,N/A,,Overcast,100,2013-09-06 18:01:00
11:01 AM,39.0,37.0,93,29.96,10.0,ENE,8.1,-,N/A,,Overcast,70,2013-09-06 19:01:00
12:01 PM,39.0,37.0,93,29.95,10.0,East,10.4,-,N/A,,Clear,80,2013-09-06 20:01:00
1:01 PM,39.0,37.0,93,29.95,10.0,East,11.5,-,N/A,,Clear,90,2013-09-06 21:01:00
2:01 PM,39.0,37.0,93,29.94,10.0,East,13.8,-,N/A,,Clear,80,2013-09-06 22:01:00
3:01 PM,39.0,37.0,93,29.94,10.0,East,12.7,-,N/A,,Clear,80,2013-09-06 23:01:00
4:01 PM,39.0,37.0,93,29.93,10.0,East,16.1,-,N/A,,Clear,90,2013-09-07 00:01:00
5:01 PM,39.2,37.4,93,29.91,3.0,East,18.4,-,N/A,,Scattered Clouds,90,2013-09-07 01:01:00
5:08 PM,37.4,37.4,100,29.91,0.5,East,19.6,-,N/A,Fog,Fog,90,2013-09-07 01:08:00
5:15 PM,37.4,35.6,93,29.91,0.2,East,18.4,-,0.00,Fog-Rain,Light Rain,90,2013-09-07 01:15:00
6:01 PM,37.9,37.0,97,29.90,0.2,East,17.3,-,0.00,Fog-Rain,Light Rain,90,2013-09-07 02:01:00
6:30 PM,37.4,37.4,100,29.90,0.5,East,19.6,-,0.00,Fog-Rain,Light Rain,100,2013-09-07 02:30:00
7:01 PM,37.4,37.4,100,29.89,0.2,East,19.6,-,0.00,Fog-Rain,Light Rain,100,2013-09-07 03:01:00
8:01 PM,37.9,37.0,97,29.88,0.2,East,21.9,-,0.00,Fog-Rain,Light Rain,100,2013-09-07 04:01:00
9:01 PM,37.0,36.0,96,29.88,0.2,East,18.4,-,0.00,Fog,Fog,90,2013-09-07 05:01:00
9:50 PM,37.4,35.6,93,29.87,0.5,East,18.4,-,0.00,Fog-Rain,Light Rain,90,2013-09-07 05:50:00
10:01 PM,37.0,36.0,96,29.87,0.5,East,18.4,-,0.00,Fog,Fog,90,2013-09-07 06:01:00
10:50 PM,37.4,37.4,100,29.86,0.8,East,19.6,-,0.00,Rain,Light Rain,100,2013-09-07 06:50:00
11:16 PM,37.4,37.4,100,29.85,0.5,East,23.0,-,N/A,Fog-Rain,Light Rain,100,2013-09-07 07:16:00
11:37 PM,37.4,37.4,100,29.84,0.5,East,26.5,-,N/A,Fog-Rain,Light Rain,100,2013-09-07 07:37:00
11:46 PM,37.4,37.4,100,29.84,0.8,East,23.0,-,N/A,Rain,Light Rain,100,2013-09-07 07:46:00